| time (UTC) | temp C | wind direction | speed KPH | gust KPH | rain 1hr cm | rain 24hr cm | rain mn cm | humidity % | barometer mb |
| 20260504024541 | 10 | 0 | 0.0 | 0.0 | 0.00 | 0.00 | 0.00 | 81 | 1003.9 |
| 20260504024038 | 10 | 0 | 0.0 | 0.0 | 0.00 | 0.00 | 0.00 | 79 | 1003.9 |
| 20260504023536 | 11 | 0 | 0.0 | 0.0 | 0.00 | 0.00 | 0.00 | 78 | 1003.9 |
| 20260504023049 | 11 | 0 | 0.0 | 0.0 | 0.00 | 0.00 | 0.00 | 77 | 1004.0 |
| 20260504022536 | 11 | 0 | 0.0 | 0.0 | 0.00 | 0.00 | 0.00 | 76 | 1003.8 |
| 20260504022038 | 12 | 0 | 0.0 | 0.0 | 0.00 | 0.00 | 0.00 | 75 | 1003.8 |
| 20260504021546 | 12 | 0 | 0.0 | 3.2 | 0.00 | 0.00 | 0.00 | 75 | 1003.7 |
| 20260504021041 | 12 | 0 | 0.0 | 3.2 | 0.00 | 0.00 | 0.00 | 74 | 1003.9 |
| 20260504020535 | 12 | 205 | 1.6 | 3.2 | 0.00 | 0.00 | 0.00 | 73 | 1003.8 |
| 20260504020125 | 13 | 205 | 1.6 | 3.2 | 0.00 | 0.00 | 0.00 | 71 | 1003.7 |
| 20260504015536 | 13 | 205 | 1.6 | 3.2 | 0.00 | 0.00 | 0.00 | 69 | 1003.6 |
| 20260504015034 | 14 | 0 | 0.0 | 3.2 | 0.00 | 0.00 | 0.00 | 67 | 1003.5 |
| 20260504014601 | 14 | 0 | 0.0 | 3.2 | 0.00 | 0.00 | 0.00 | 66 | 1003.7 |
| 20260504014036 | 15 | 205 | 0.0 | 3.2 | 0.00 | 0.00 | 0.00 | 65 | 1003.9 |
| 20260504013533 | 15 | 0 | 1.6 | 3.2 | 0.00 | 0.00 | 0.00 | 63 | 1003.8 |
| 20260504013053 | 15 | 0 | 0.0 | 4.8 | 0.00 | 0.00 | 0.00 | 62 | 1003.8 |
| 20260504012533 | 15 | 205 | 1.6 | 4.8 | 0.00 | 0.00 | 0.00 | 61 | 1003.6 |
| 20260504012033 | 16 | 206 | 1.6 | 6.4 | 0.00 | 0.00 | 0.00 | 60 | 1003.6 |
| 20260504011540 | 16 | 206 | 1.6 | 6.4 | 0.00 | 0.00 | 0.00 | 60 | 1003.6 |
| 20260504011032 | 16 | 206 | 1.6 | 8.0 | 0.00 | 0.00 | 0.00 | 59 | 1003.6 |
| 20260504010536 | 17 | 206 | 1.6 | 8.0 | 0.00 | 0.00 | 0.00 | 58 | 1003.6 |
| 20260504010048 | 17 | 208 | 1.6 | 4.8 | 0.00 | 0.00 | 0.00 | 57 | 1003.5 |
| 20260504005536 | 17 | 208 | 1.6 | 6.4 | 0.00 | 0.00 | 0.00 | 57 | 1003.5 |
| 20260504005035 | 17 | 208 | 1.6 | 6.4 | 0.00 | 0.00 | 0.00 | 56 | 1003.5 |
| 20260504004616 | 17 | 209 | 1.6 | 8.0 | 0.00 | 0.00 | 0.00 | 55 | 1003.4 |
| 20260504004035 | 17 | 210 | 3.2 | 8.0 | 0.00 | 0.00 | 0.00 | 55 | 1003.5 |
| 20260504003536 | 18 | 215 | 3.2 | 8.0 | 0.00 | 0.00 | 0.00 | 54 | 1003.5 |
| 20260504003049 | 18 | 237 | 3.2 | 9.7 | 0.00 | 0.00 | 0.00 | 54 | 1003.4 |
| 20260504002536 | 18 | 219 | 3.2 | 12.9 | 0.00 | 0.00 | 0.00 | 53 | 1003.4 |
| 20260504002035 | 18 | 254 | 3.2 | 12.9 | 0.00 | 0.00 | 0.00 | 53 | 1003.4 |
| 20260504001618 | 18 | 264 | 4.8 | 14.5 | 0.00 | 0.00 | 0.00 | 52 | 1003.3 |
| 20260504001033 | 18 | 215 | 4.8 | 14.5 | 0.00 | 0.00 | 0.00 | 51 | 1003.4 |
| 20260504000534 | 18 | 265 | 4.8 | 14.5 | 0.00 | 0.00 | 0.00 | 52 | 1003.5 |
| 20260503235536 | 19 | 222 | 6.4 | 17.7 | 0.00 | 0.00 | 0.00 | 51 | 1003.4 |
| 20260503235034 | 19 | 234 | 4.8 | 24.1 | 0.00 | 0.00 | 0.00 | 52 | 1003.5 |
| 20260503234549 | 19 | 209 | 8.0 | 24.1 | 0.00 | 0.00 | 0.00 | 52 | 1003.4 |
| 20260503234036 | 19 | 232 | 9.7 | 24.1 | 0.00 | 0.00 | 0.00 | 50 | 1003.5 |
| 20260503233534 | 19 | 237 | 6.4 | 22.5 | 0.00 | 0.00 | 0.00 | 51 | 1003.5 |
| 20260503233045 | 19 | 224 | 8.0 | 22.5 | 0.00 | 0.00 | 0.00 | 50 | 1003.4 |
| 20260503232534 | 19 | 245 | 6.4 | 20.9 | 0.00 | 0.00 | 0.00 | 52 | 1003.6 |
| 20260503232034 | 19 | 182 | 8.0 | 20.9 | 0.00 | 0.00 | 0.00 | 52 | 1003.6 |
| 20260503231543 | 19 | 218 | 9.7 | 24.1 | 0.00 | 0.00 | 0.00 | 52 | 1003.6 |
| 20260503231034 | 19 | 208 | 6.4 | 24.1 | 0.00 | 0.00 | 0.00 | 52 | 1003.7 |
| 20260503230534 | 19 | 194 | 9.7 | 22.5 | 0.00 | 0.00 | 0.00 | 51 | 1003.6 |
| 20260503230105 | 19 | 210 | 6.4 | 20.9 | 0.00 | 0.00 | 0.00 | 52 | 1003.6 |
| 20260503225532 | 19 | 211 | 6.4 | 17.7 | 0.00 | 0.00 | 0.00 | 51 | 1003.6 |
| 20260503225034 | 19 | 257 | 8.0 | 17.7 | 0.00 | 0.00 | 0.00 | 52 | 1003.8 |
| 20260503224548 | 19 | 202 | 6.4 | 17.7 | 0.00 | 0.00 | 0.00 | 52 | 1003.7 |
| 20260503224036 | 19 | 234 | 6.4 | 19.3 | 0.00 | 0.00 | 0.00 | 51 | 1003.8 |
| 20260503223534 | 19 | 239 | 6.4 | 20.9 | 0.00 | 0.00 | 0.00 | 52 | 1003.8 |
| 20260503223048 | 19 | 225 | 9.7 | 24.1 | 0.00 | 0.00 | 0.00 | 51 | 1003.8 |
| 20260503222534 | 19 | 195 | 8.0 | 29.0 | 0.00 | 0.00 | 0.00 | 53 | 1003.9 |
| 20260503222035 | 19 | 208 | 9.7 | 29.0 | 0.00 | 0.00 | 0.00 | 52 | 1004.0 |
| 20260503221546 | 19 | 223 | 8.0 | 25.7 | 0.00 | 0.00 | 0.00 | 53 | 1004.0 |
| 20260503221034 | 19 | 216 | 11.3 | 25.7 | 0.00 | 0.00 | 0.00 | 53 | 1004.1 |
| 20260503220535 | 19 | 215 | 8.0 | 25.7 | 0.00 | 0.00 | 0.00 | 55 | 1003.9 |
| 20260503220047 | 19 | 213 | 8.0 | 33.8 | 0.00 | 0.00 | 0.00 | 52 | 1004.0 |
| 20260503215535 | 18 | 197 | 14.5 | 33.8 | 0.00 | 0.00 | 0.00 | 54 | 1003.9 |
| 20260503215034 | 18 | 207 | 11.3 | 29.0 | 0.00 | 0.00 | 0.00 | 53 | 1004.0 |
| 20260503214550 | 18 | 234 | 14.5 | 29.0 | 0.00 | 0.00 | 0.00 | 54 | 1003.9 |
| 20260503214038 | 18 | 236 | 12.9 | 25.7 | 0.00 | 0.00 | 0.00 | 53 | 1004.0 |
| 20260503213533 | 18 | 173 | 11.3 | 25.7 | 0.00 | 0.00 | 0.00 | 53 | 1004.2 |
| 20260503213044 | 18 | 218 | 9.7 | 32.2 | 0.00 | 0.00 | 0.00 | 54 | 1004.3 |
| 20260503212533 | 18 | 223 | 11.3 | 32.2 | 0.00 | 0.00 | 0.00 | 54 | 1004.2 |
| 20260503212035 | 18 | 208 | 9.7 | 32.2 | 0.00 | 0.00 | 0.00 | 54 | 1004.3 |
| 20260503211549 | 18 | 242 | 11.3 | 38.6 | 0.00 | 0.00 | 0.00 | 52 | 1004.3 |
| 20260503211038 | 18 | 196 | 14.5 | 38.6 | 0.00 | 0.00 | 0.00 | 54 | 1004.4 |
| 20260503210538 | 18 | 223 | 12.9 | 32.2 | 0.00 | 0.00 | 0.00 | 54 | 1004.4 |
| 20260503210051 | 18 | 213 | 8.0 | 33.8 | 0.00 | 0.00 | 0.00 | 54 | 1004.7 |
| 20260503205538 | 18 | 224 | 14.5 | 33.8 | 0.00 | 0.00 | 0.00 | 53 | 1005.0 |
| 20260503205039 | 18 | 234 | 9.7 | 32.2 | 0.00 | 0.00 | 0.00 | 53 | 1004.9 |
| 20260503204548 | 18 | 259 | 14.5 | 32.2 | 0.00 | 0.00 | 0.00 | 54 | 1004.9 |
| 20260503204034 | 18 | 206 | 9.7 | 35.4 | 0.00 | 0.00 | 0.00 | 54 | 1004.9 |
| 20260503203537 | 18 | 218 | 17.7 | 35.4 | 0.00 | 0.00 | 0.00 | 52 | 1005.0 |
| 20260503203103 | 18 | 275 | 8.0 | 33.8 | 0.00 | 0.00 | 0.00 | 56 | 1005.1 |
| 20260503202538 | 18 | 263 | 6.4 | 33.8 | 0.00 | 0.00 | 0.00 | 58 | 1005.2 |
| 20260503202041 | 17 | 199 | 16.1 | 33.8 | 0.00 | 0.00 | 0.00 | 57 | 1005.2 |
| 20260503201548 | 17 | 238 | 11.3 | 29.0 | 0.00 | 0.00 | 0.00 | 60 | 1005.3 |
| 20260503201038 | 17 | 263 | 16.1 | 35.4 | 0.00 | 0.00 | 0.00 | 59 | 1005.5 |
| 20260503200542 | 17 | 242 | 14.5 | 43.5 | 0.00 | 0.00 | 0.00 | 62 | 1005.6 |
| 20260503200043 | 17 | 215 | 17.7 | 43.5 | 0.00 | 0.00 | 0.00 | 60 | 1005.8 |
| 20260503195536 | 16 | 236 | 16.1 | 33.8 | 0.00 | 0.00 | 0.00 | 60 | 1005.8 |
| 20260503195035 | 16 | 214 | 16.1 | 33.8 | 0.00 | 0.00 | 0.00 | 63 | 1006.1 |
| 20260503194545 | 16 | 226 | 14.5 | 37.0 | 0.00 | 0.00 | 0.00 | 63 | 1006.2 |
| 20260503194038 | 16 | 237 | 22.5 | 38.6 | 0.00 | 0.00 | 0.00 | 61 | 1006.2 |
| 20260503193538 | 16 | 187 | 19.3 | 38.6 | 0.00 | 0.00 | 0.00 | 60 | 1006.3 |
| 20260503193046 | 16 | 201 | 16.1 | 37.0 | 0.00 | 0.00 | 0.00 | 59 | 1006.4 |
| 20260503192537 | 16 | 275 | 16.1 | 37.0 | 0.00 | 0.00 | 0.00 | 60 | 1006.5 |
| 20260503192037 | 16 | 221 | 11.3 | 37.0 | 0.00 | 0.00 | 0.00 | 59 | 1006.5 |
| 20260503191549 | 16 | 209 | 16.1 | 40.2 | 0.00 | 0.00 | 0.00 | 57 | 1006.5 |
| 20260503191034 | 16 | 213 | 20.9 | 45.1 | 0.00 | 0.00 | 0.00 | 55 | 1006.6 |
| 20260503190537 | 17 | 223 | 20.9 | 45.1 | 0.00 | 0.00 | 0.00 | 54 | 1006.6 |
| 20260503190058 | 17 | 203 | 11.3 | 37.0 | 0.00 | 0.00 | 0.00 | 57 | 1006.5 |
| 20260503185538 | 17 | 211 | 14.5 | 37.0 | 0.00 | 0.00 | 0.00 | 54 | 1006.7 |
| 20260503185038 | 17 | 227 | 17.7 | 40.2 | 0.00 | 0.00 | 0.00 | 56 | 1006.6 |
| 20260503184542 | 17 | 238 | 22.5 | 40.2 | 0.00 | 0.00 | 0.00 | 54 | 1006.6 |
| 20260503184038 | 17 | 188 | 14.5 | 30.6 | 0.00 | 0.00 | 0.00 | 56 | 1006.5 |
| 20260503183540 | 17 | 200 | 9.7 | 27.4 | 0.00 | 0.00 | 0.00 | 59 | 1006.7 |
| 20260503183043 | 17 | 151 | 11.3 | 41.8 | 0.00 | 0.00 | 0.00 | 55 | 1006.8 |
| 20260503182536 | 16 | 267 | 12.9 | 41.8 | 0.00 | 0.00 | 0.00 | 57 | 1006.8 |
| 20260503182038 | 16 | 230 | 24.1 | 41.8 | 0.00 | 0.00 | 0.00 | 53 | 1006.9 |
| 20260503181558 | 16 | 296 | 14.5 | 32.2 | 0.00 | 0.00 | 0.00 | 56 | 1006.9 |
| 20260503181034 | 16 | 202 | 17.7 | 37.0 | 0.00 | 0.00 | 0.00 | 55 | 1006.9 |
| 20260503180536 | 16 | 207 | 16.1 | 37.0 | 0.00 | 0.00 | 0.00 | 61 | 1007.0 |
| 20260503180054 | 16 | 215 | 14.5 | 38.6 | 0.00 | 0.00 | 0.00 | 59 | 1007.1 |
| 20260503175535 | 16 | 211 | 20.9 | 38.6 | 0.00 | 0.00 | 0.00 | 58 | 1007.2 |
| 20260503175035 | 15 | 192 | 17.7 | 37.0 | 0.00 | 0.00 | 0.00 | 61 | 1007.3 |
| 20260503174550 | 15 | 207 | 17.7 | 37.0 | 0.00 | 0.00 | 0.00 | 64 | 1007.3 |
| 20260503174034 | 15 | 232 | 17.7 | 35.4 | 0.00 | 0.00 | 0.00 | 65 | 1007.3 |
| 20260503173535 | 15 | 209 | 16.1 | 30.6 | 0.00 | 0.00 | 0.00 | 67 | 1007.5 |
| 20260503173044 | 15 | 202 | 14.5 | 30.6 | 0.00 | 0.00 | 0.00 | 68 | 1007.7 |
| 20260503172535 | 14 | 195 | 11.3 | 32.2 | 0.00 | 0.00 | 0.00 | 67 | 1007.7 |
| 20260503172033 | 14 | 200 | 14.5 | 40.2 | 0.00 | 0.00 | 0.00 | 68 | 1007.8 |
| 20260503171545 | 13 | 199 | 19.3 | 40.2 | 0.00 | 0.00 | 0.00 | 65 | 1008.1 |
| 20260503171035 | 13 | 194 | 14.5 | 40.2 | 0.00 | 0.00 | 0.00 | 67 | 1008.1 |
| 20260503170533 | 13 | 214 | 16.1 | 30.6 | 0.00 | 0.00 | 0.00 | 67 | 1008.1 |
| 20260503150533 | 12 | 242 | 16.1 | 33.8 | 0.00 | 0.00 | 0.00 | 69 | 1009.8 |
| 20260503131034 | 11 | 198 | 12.9 | 33.8 | 0.00 | 0.00 | 0.00 | 65 | 1010.7 |
| 20260503130534 | 10 | 273 | 11.3 | 30.6 | 0.00 | 0.00 | 0.00 | 67 | 1010.8 |
| 20260503110536 | 8 | 236 | 8.0 | 25.7 | 0.00 | 0.00 | 0.00 | 65 | 1010.4 |
| 20260503100105 | 7 | 247 | 6.4 | 22.5 | 0.00 | 0.00 | 0.00 | 66 | 1010.9 |
| 20260503081550 | 8 | 209 | 3.2 | 12.9 | 0.00 | 0.00 | 0.00 | 62 | 1011.8 |
| 20260503081037 | 8 | 227 | 3.2 | 17.7 | 0.00 | 0.00 | 0.00 | 63 | 1011.8 |
| 20260503080535 | 8 | 220 | 6.4 | 17.7 | 0.00 | 0.00 | 0.00 | 62 | 1011.8 |
| 20260503072535 | 8 | 216 | 8.0 | 16.1 | 0.00 | 0.00 | 0.00 | 60 | 1012.0 |
| 20260503072034 | 8 | 210 | 3.2 | 17.7 | 0.00 | 0.00 | 0.00 | 61 | 1012.0 |
| 20260503071544 | 8 | 232 | 6.4 | 17.7 | 0.00 | 0.00 | 0.00 | 61 | 1012.0 |
| 20260503071037 | 8 | 200 | 4.8 | 22.5 | 0.00 | 0.00 | 0.00 | 61 | 1011.9 |
| 20260503070535 | 8 | 226 | 6.4 | 22.5 | 0.00 | 0.00 | 0.00 | 60 | 1012.1 |
| 20260503060115 | 8 | 194 | 6.4 | 27.4 | 0.00 | 0.00 | 0.00 | 59 | 1012.5 |
| 20260503055036 | 8 | 261 | 6.4 | 19.3 | 0.00 | 0.00 | 0.00 | 59 | 1012.7 |
| 20260503054603 | 8 | 219 | 6.4 | 19.3 | 0.00 | 0.00 | 0.00 | 59 | 1012.7 |
| 20260503054039 | 8 | 227 | 4.8 | 19.3 | 0.00 | 0.00 | 0.00 | 59 | 1012.9 |
| 20260503053536 | 8 | 213 | 8.0 | 19.3 | 0.00 | 0.00 | 0.00 | 59 | 1012.8 |
| 20260503053048 | 8 | 207 | 4.8 | 17.7 | 0.00 | 0.00 | 0.00 | 59 | 1012.8 |
| 20260503052541 | 8 | 213 | 4.8 | 17.7 | 0.00 | 0.00 | 0.00 | 59 | 1012.8 |
| 20260503052040 | 8 | 188 | 6.4 | 17.7 | 0.00 | 0.00 | 0.00 | 59 | 1013.0 |
| 20260503051549 | 8 | 215 | 6.4 | 16.1 | 0.00 | 0.00 | 0.00 | 59 | 1012.9 |
| 20260503051037 | 8 | 208 | 6.4 | 16.1 | 0.00 | 0.00 | 0.00 | 59 | 1013.0 |
| 20260503050537 | 8 | 222 | 8.0 | 16.1 | 0.00 | 0.00 | 0.00 | 58 | 1013.1 |
| 20260503050053 | 8 | 209 | 6.4 | 12.9 | 0.00 | 0.00 | 0.00 | 59 | 1013.0 |
| 20260503045535 | 8 | 202 | 4.8 | 12.9 | 0.00 | 0.00 | 0.00 | 59 | 1013.1 |
| 20260503045037 | 8 | 214 | 6.4 | 16.1 | 0.00 | 0.00 | 0.00 | 59 | 1013.0 |
| 20260503044548 | 8 | 217 | 4.8 | 16.1 | 0.00 | 0.00 | 0.00 | 59 | 1013.1 |
| 20260503044037 | 8 | 201 | 4.8 | 16.1 | 0.00 | 0.00 | 0.00 | 59 | 1013.1 |
| 20260503043541 | 8 | 220 | 6.4 | 17.7 | 0.00 | 0.00 | 0.00 | 59 | 1013.1 |
| 20260503043042 | 8 | 215 | 6.4 | 17.7 | 0.00 | 0.00 | 0.00 | 59 | 1013.2 |
| 20260503042541 | 8 | 223 | 6.4 | 16.1 | 0.00 | 0.00 | 0.00 | 59 | 1013.3 |
| 20260503042038 | 8 | 175 | 4.8 | 16.1 | 0.00 | 0.00 | 0.00 | 60 | 1013.3 |
| 20260503041545 | 8 | 225 | 4.8 | 11.3 | 0.00 | 0.00 | 0.00 | 60 | 1013.3 |
| 20260503041036 | 8 | 208 | 4.8 | 9.7 | 0.00 | 0.00 | 0.00 | 60 | 1013.3 |
| 20260503040538 | 8 | 215 | 4.8 | 11.3 | 0.00 | 0.00 | 0.00 | 60 | 1013.3 |
| 20260503040043 | 8 | 212 | 6.4 | 12.9 | 0.00 | 0.00 | 0.00 | 60 | 1013.5 |
| 20260503035538 | 8 | 205 | 4.8 | 12.9 | 0.00 | 0.00 | 0.00 | 60 | 1013.4 |
| 20260503035038 | 8 | 223 | 4.8 | 12.9 | 0.00 | 0.00 | 0.00 | 60 | 1013.4 |
| 20260503034547 | 8 | 223 | 6.4 | 12.9 | 0.00 | 0.00 | 0.00 | 60 | 1013.4 |
| 20260503034037 | 8 | 219 | 3.2 | 9.7 | 0.00 | 0.00 | 0.00 | 60 | 1013.5 |
| 20260503033538 | 8 | 215 | 4.8 | 12.9 | 0.00 | 0.00 | 0.00 | 60 | 1013.5 |
| 20260503033044 | 8 | 198 | 3.2 | 12.9 | 0.00 | 0.00 | 0.00 | 60 | 1013.5 |
| 20260503032536 | 8 | 214 | 4.8 | 12.9 | 0.00 | 0.00 | 0.00 | 60 | 1013.6 |
| 20260503032034 | 8 | 214 | 4.8 | 11.3 | 0.00 | 0.00 | 0.00 | 60 | 1013.6 |
| 20260503031546 | 8 | 215 | 6.4 | 11.3 | 0.00 | 0.00 | 0.00 | 60 | 1013.7 |
| 20260503031034 | 8 | 228 | 6.4 | 12.9 | 0.00 | 0.00 | 0.00 | 60 | 1013.7 |
| 20260503030537 | 8 | 211 | 4.8 | 12.9 | 0.00 | 0.00 | 0.00 | 61 | 1013.7 |
| 20260503030049 | 8 | 179 | 3.2 | 9.7 | 0.00 | 0.00 | 0.00 | 61 | 1013.8 |
| 20260503025535 | 8 | 211 | 3.2 | 11.3 | 0.00 | 0.00 | 0.00 | 61 | 1013.9 |
| 20260503025036 | 8 | 223 | 4.8 | 12.9 | 0.00 | 0.00 | 0.00 | 61 | 1013.9 |